Vorticity
8 10 7 6 6 7 8 8 6 7 9 13 16 15 18 15 14 7 11 12 10 13 10 18 13 2 5 21 13 -3 21 24 8 9 10 14 6 7 10 -7 26 17 2 18 19 11 26 -0 15 13 1 10 -7 13
8 8 7 7 7 7 8 8 6 6 9 15 14 15 12 12 15 16 17 25 22 16 11 14 25 29 4 14 -11 13 4 15 -18 -6 -11 13 -8 12 -4 22 -1 14 18 7 9 5 -3 -12 -1 1 17 25 -1 2
8 8 8 7 8 8 8 7 5 6 11 16 13 16 8 22 15 25 14 21 21 22 23 28 -9 30 21 5 9 12 10 10 7 9 27 18 13 13 11 4 4 -14 6 11 25 10 -6 14 22 4 15 11 3 10
7 7 9 9 10 9 8 6 5 7 12 17 12 16 9 17 17 14 23 30 26 10 14 4 -2 20 13 10 12 18 13 11 14 14 5 3 3 11 -2 -12 3 18 18 -2 20 17 5 30 12 3 16 16 9 -0
7 8 8 10 11 10 7 6 6 8 14 17 13 13 15 21 7 19 16 12 15 10 7 22 24 0 12 9 5 2 4 26 27 25 14 9 12 16 24 39 26 1 3 8 -17 -3 11 18 26 6 20 15 6 -4
7 7 8 9 12 10 8 7 6 8 15 15 15 11 21 21 8 12 19 7 14 14 17 20 15 -4 17 27 22 21 26 35 28 25 16 25 12 7 14 11 -8 11 12 13 11 9 19 24 12 13 12 12 -5 24
7 7 7 9 12 12 10 7 6 8 14 16 14 11 24 20 7 3 5 11 14 12 27 6 6 4 28 -23 18 38 19 13 -1 6 23 11 20 19 -10 13 5 13 32 32 17 20 17 11 15 17 12 10 28 23
7 6 7 9 13 14 10 7 6 9 16 16 15 12 26 16 13 7 7 8 5 20 18 3 13 14 34 -3 17 -15 31 35 44 24 17 37 20 17 -10 13 5 25 32 28 26 22 11 14 18 19 17 21 17 19
7 7 6 9 16 14 10 7 6 10 18 15 20 12 26 11 12 11 10 9 10 6 11 -4 21 3 24 19 7 8 15 -13 1 -2 24 14 18 -2 6 12 3 16 20 19 24 22 23 23 24 18 16 15 23 19
8 7 6 10 14 14 10 7 7 11 16 19 16 15 25 12 12 12 20 9 13 8 1 8 17 7 19 22 23 9 8 20 2 13 6 -6 24 21 25 12 12 19 15 13 21 18 19 24 18 25 36 33 32 30
8 7 7 9 14 14 9 8 8 14 15 20 15 19 25 17 17 15 8 15 10 14 -5 9 16 12 15 8 13 14 10 8 -1 -10 18 1 9 18 23 30 34 25 26 25 26 32 41 29 21 16 11 10 9 8
10 7 8 8 12 13 10 7 10 14 16 21 24 24 18 16 11 9 11 10 12 1 9 16 18 13 11 5 14 6 9 8 9 11 14 -16 26 15 20 25 22 22 27 29 22 9 14 14 17 17 18 15 11 11
11 9 8 8 11 13 10 8 13 12 18 16 22 20 18 11 9 9 6 4 12 9 9 11 16 15 5 6 9 10 9 10 5 5 9 14 19 15 9 6 5 6 12 13 14 9 2 1 3 6 7 8 7 10
12 11 8 8 11 13 9 8 14 13 16 26 27 17 14 11 8 -26 18 14 19 14 9 12 16 13 13 9 13 14 14 10 9 15 19 17 15 15 14 15 5 4 3 6 -3 3 4 3 9 14 20 20 18 16
14 14 8 9 12 13 9 9 15 15 10 26 25 11 -9 -9 27 30 17 14 15 11 8 14 7 13 11 11 16 10 9 13 23 31 16 13 17 20 14 16 19 24 26 31 32 31 20 5 -1 -3 -2 -1 -1 -1
16 14 9 11 12 12 9 10 14 23 22 15 -2 17 21 28 22 17 10 15 11 11 10 12 10 11 14 14 10 12 11 21 30 12 14 11 12 12 11 11 7 3 1 -4 -4 -1 2 4 7 7 6 6 7 7
16 14 15 9 10 13 9 15 10 19 18 -2 10 20 24 26 20 18 11 13 11 13 8 9 11 15 13 12 11 14 59 12 13 9 5 5 3 2 2 4 2 5 7 5 5 7 9 9 8 7 7 7 6 5
19 19 10 7 10 13 8 17 15 9 7 -1 13 24 26 32 19 19 14 14 14 12 7 8 12 11 13 20 63 21 7 10 6 4 4 6 7 7 7 8 8 7 6 6 7 8 7 6 6 7 7 7 5 3
18 13 8 8 10 15 13 10 17 9 6 -3 5 20 35 32 23 19 18 12 17 8 11 12 9 18 48 40 2 7 9 10 7 5 6 7 6 7 7 7 7 7 7 7 7 7 7 6 5 5 4 4 6 8
10 10 9 10 9 14 17 5 19 11 -1 3 6 7 19 46 23 22 16 11 19 13 7 15 43 62 -0 6 5 7 7 3 2 7 7 7 7 7 7 7 7 7 7 7 7 7 7 8 9 10 10 11 12 12
12 8 12 11 15 17 16 4 16 7 4 2 0 10 6 19 48 29 14 10 4 5 71 45 8 7 6 7 8 8 4 2 6 6 7 8 8 7 7 7 9 9 9 11 13 15 17 16 16 15 14 14 14 14
28 24 19 23 19 17 9 7 17 12 4 3 10 1 3 12 22 43 44 48 55 20 8 14 11 10 9 8 11 5 6 7 7 7 6 7 7 8 8 8 8 8 8 8 9 11 13 14 14 14 14 13 13 14
20 24 26 19 14 12 9 9 14 16 14 9 14 10 16 11 12 8 13 12 11 14 11 10 10 9 10 7 5 7 6 5 5 7 9 9 9 8 8 8 8 9 10 9 7 9 13 14 14 15 15 14 13 14
20 19 14 12 9 8 9 9 13 14 13 17 13 14 9 5 6 10 8 9 10 9 9 9 9 11 9 7 5 6 7 9 9 9 9 9 8 8 9 10 10 10 10 10 9 9 13 17 17 15 15 15 15 14
19 16 12 10 7 11 13 12 12 16 13 13 10 19 11 7 4 12 8 8 8 9 9 8 7 7 7 7 7 9 9 9 9 9 9 9 9 10 11 10 10 9 11 11 11 10 7 11 18 17 15 15 14 14
14 15 10 8 10 12 10 13 14 12 13 13 13 13 12 6 11 22 10 7 7 7 7 7 8 8 8 8 9 10 10 10 9 9 9 11 11 10 8 7 7 6 7 9 11 12 12 8 11 18 17 16 15 15
15 13 8 9 10 11 14 15 14 14 12 14 17 14 13 13 12 16 19 9 8 8 8 8 8 7 7 8 9 9 10 9 9 8 10 9 8 6 5 5 6 6 7 7 10 14 14 13 10 11 18 17 15 13
8 12 10 13 12 13 13 16 16 17 14 14 12 12 8 7 15 13 24 13 10 11 9 9 9 8 8 9 10 9 9 8 8 7 7 7 7 7 6 7 8 9 10 9 9 11 15 14 14 10 10 17 16 14
14 16 18 14 13 10 13 15 14 13 11 11 8 9 9 6 13 11 23 19 13 11 10 9 9 7 7 8 10 11 10 9 9 8 7 7 8 8 7 8 9 10 10 10 10 10 12 16 15 15 12 9 15 15
14 14 12 10 10 9 6 11 13 13 13 14 15 12 9 9 18 19 21 17 14 11 9 8 6 7 4 9 11 9 9 9 10 9 8 8 8 8 8 7 8 10 11 11 12 12 12 13 15 15 17 15 10 13
20 13 22 20 10 8 8 7 9 14 19 14 11 14 15 19 28 21 15 14 14 14 12 10 10 8 7 10 13 9 7 5 6 11 11 9 7 10 8 7 10 11 11 11 11 11 12 13 14 15 14 15 14 12
16 14 18 12 17 19 15 11 11 12 17 16 14 15 18 15 11 15 14 12 11 9 8 9 11 13 16 15 11 10 12 9 10 12 9 8 12 10 7 9 10 11 11 11 11 11 12 13 13 14 16 16 14 15
16 12 14 17 17 16 18 22 19 16 17 20 19 17 13 8 9 8 10 12 13 15 17 17 14 11 11 12 14 13 13 13 7 6 10 13 8 8 11 11 11 11 11 11 11 11 11 12 13 14 13 15 18 15
Height
3075 3072 3068 3062 3056 3052 3046 3039 3034 3027 3021 3017 3010 3004 2998 2992 2989 2984 2979 2975 2972 2966 2964 2962 2961 2960 2958 2956 2953 2951 2949 2945 2944 2944 2942 2941 2938 2937 2934 2931 2925 2925 2926 2926 2928 2927 2923 2917 2916 2915 2916 2911 2909 2908
3070 3067 3063 3057 3052 3048 3042 3036 3028 3022 3018 3012 3005 2998 2992 2987 2982 2977 2971 2966 2963 2960 2959 2957 2955 2954 2953 2952 2950 2947 2946 2944 2942 2941 2940 2938 2938 2936 2933 2931 2927 2926 2927 2927 2926 2922 2919 2916 2915 2914 2912 2909 2908 2906
3066 3062 3057 3053 3048 3043 3037 3031 3024 3019 3013 3006 2999 2994 2988 2981 2976 2969 2964 2960 2957 2954 2953 2952 2952 2950 2949 2949 2946 2943 2940 2938 2936 2936 2935 2935 2934 2933 2932 2930 2929 2927 2924 2923 2920 2918 2915 2914 2913 2913 2911 2909 2908 2905
3060 3056 3052 3048 3044 3038 3032 3026 3021 3015 3007 3000 2994 2989 2984 2977 2971 2966 2961 2957 2955 2953 2951 2952 2950 2948 2947 2944 2942 2938 2935 2933 2930 2931 2931 2931 2931 2931 2928 2928 2927 2924 2921 2917 2915 2914 2910 2911 2911 2910 2908 2907 2906 2904
3055 3051 3047 3044 3039 3034 3029 3023 3017 3011 3003 2996 2991 2986 2982 2976 2969 2964 2960 2957 2954 2955 2952 2950 2948 2947 2944 2941 2938 2934 2929 2926 2924 2926 2927 2928 2927 2927 2925 2923 2923 2922 2919 2916 2912 2912 2908 2907 2908 2907 2905 2904 2903 2903
3050 3047 3043 3038 3033 3028 3025 3020 3013 3006 2998 2993 2988 2983 2978 2974 2969 2965 2960 2958 2954 2952 2950 2949 2948 2946 2942 2939 2935 2930 2926 2923 2922 2924 2926 2926 2925 2926 2924 2922 2922 2920 2916 2912 2909 2909 2907 2906 2905 2904 2902 2902 2903 2902
3045 3042 3038 3034 3029 3023 3020 3015 3009 3001 2994 2989 2984 2980 2975 2970 2968 2965 2963 2959 2955 2952 2950 2949 2947 2945 2942 2938 2935 2929 2927 2925 2925 2924 2924 2924 2923 2923 2921 2920 2918 2914 2909 2907 2906 2906 2905 2904 2903 2902 2903 2903 2903 2901
3040 3037 3033 3029 3025 3019 3015 3010 3004 2998 2992 2986 2982 2978 2974 2969 2965 2963 2960 2958 2955 2952 2950 2949 2946 2944 2941 2939 2937 2935 2931 2928 2927 2926 2925 2923 2923 2921 2921 2919 2915 2912 2906 2904 2903 2903 2902 2902 2903 2903 2902 2902 2902 2902
3035 3032 3028 3023 3020 3014 3009 3004 2999 2994 2988 2982 2977 2973 2971 2968 2964 2962 2959 2957 2955 2956 2951 2950 2946 2944 2942 2940 2939 2938 2936 2934 2934 2931 2928 2928 2924 2924 2922 2917 2914 2909 2906 2904 2903 2903 2903 2904 2904 2904 2904 2903 2905 2906
3031 3027 3023 3019 3015 3009 3004 2999 2994 2989 2984 2978 2973 2969 2966 2965 2962 2961 2958 2956 2954 2953 2951 2950 2948 2945 2944 2941 2940 2940 2939 2939 2939 2938 2935 2932 2930 2928 2923 2918 2915 2911 2908 2906 2906 2906 2906 2907 2907 2907 2909 2910 2910 2911
3026 3022 3018 3014 3010 3005 3000 2996 2990 2985 2981 2975 2969 2966 2963 2961 2960 2958 2957 2956 2954 2953 2952 2950 2948 2946 2946 2944 2942 2942 2943 2944 2944 2945 2940 2939 2934 2930 2925 2921 2918 2914 2912 2912 2912 2911 2912 2913 2915 2917 2919 2921 2922 2924
3021 3016 3014 3009 3004 3001 2997 2991 2986 2982 2976 2971 2967 2963 2961 2960 2959 2959 2956 2956 2955 2954 2953 2950 2948 2947 2946 2945 2945 2946 2946 2949 2950 2949 2946 2945 2942 2939 2935 2930 2927 2924 2922 2921 2923 2924 2926 2926 2929 2931 2932 2934 2935 2935
3015 3011 3008 3004 3001 2997 2993 2988 2983 2978 2973 2969 2964 2961 2960 2960 2959 2957 2956 2956 2955 2953 2952 2950 2949 2948 2948 2947 2948 2948 2950 2953 2954 2953 2954 2953 2950 2947 2945 2942 2940 2938 2937 2935 2936 2938 2937 2937 2939 2940 2941 2942 2944 2945
3011 3007 3004 3000 2998 2993 2989 2985 2980 2975 2971 2967 2963 2961 2960 2958 2957 2955 2954 2953 2953 2952 2951 2950 2949 2948 2948 2948 2949 2950 2954 2955 2957 2958 2958 2957 2954 2953 2953 2951 2951 2950 2949 2947 2947 2947 2947 2948 2949 2948 2949 2950 2952 2953
3006 3003 3000 2997 2995 2990 2986 2982 2977 2973 2969 2965 2964 2961 2959 2956 2953 2950 2950 2951 2950 2950 2951 2950 2950 2949 2948 2949 2950 2952 2954 2956 2960 2961 2960 2960 2959 2958 2957 2957 2957 2956 2956 2956 2956 2956 2956 2956 2957 2958 2958 2959 2961 2961
3002 3000 2996 2994 2991 2987 2984 2980 2975 2971 2967 2965 2964 2961 2955 2950 2948 2947 2947 2948 2948 2949 2950 2950 2949 2949 2949 2949 2950 2951 2954 2957 2961 2962 2962 2963 2963 2963 2962 2963 2963 2963 2964 2964 2964 2964 2964 2965 2965 2966 2965 2966 2967 2968
2996 2995 2993 2990 2987 2984 2981 2977 2974 2970 2968 2966 2961 2955 2950 2946 2944 2944 2944 2946 2947 2948 2948 2949 2949 2948 2949 2949 2950 2951 2954 2959 2962 2964 2965 2966 2968 2969 2969 2970 2970 2971 2971 2971 2970 2970 2970 2971 2971 2971 2971 2971 2971 2971
2991 2990 2989 2987 2984 2982 2979 2975 2972 2970 2968 2964 2958 2952 2946 2943 2942 2941 2942 2944 2945 2946 2947 2948 2948 2948 2948 2949 2951 2954 2958 2962 2965 2967 2969 2970 2972 2973 2973 2974 2974 2974 2974 2974 2974 2974 2974 2974 2974 2974 2974 2974 2974 2973
2988 2987 2986 2984 2981 2979 2977 2974 2972 2970 2967 2963 2957 2952 2946 2941 2940 2940 2941 2942 2943 2945 2946 2946 2946 2946 2947 2951 2955 2959 2963 2967 2970 2971 2973 2974 2975 2976 2977 2978 2978 2978 2977 2977 2976 2976 2976 2976 2976 2975 2974 2973 2972 2972
2984 2983 2982 2980 2978 2976 2975 2974 2972 2969 2967 2965 2959 2953 2947 2942 2940 2940 2941 2942 2943 2944 2945 2945 2945 2948 2952 2956 2960 2964 2968 2970 2973 2975 2977 2978 2979 2979 2980 2980 2980 2980 2980 2979 2979 2978 2977 2976 2975 2973 2972 2971 2971 2970
2981 2980 2977 2976 2975 2975 2974 2972 2971 2970 2968 2966 2963 2958 2952 2947 2942 2940 2941 2942 2943 2944 2943 2946 2949 2953 2957 2961 2964 2968 2971 2974 2976 2977 2979 2980 2981 2981 2981 2981 2981 2981 2980 2979 2978 2977 2975 2974 2972 2970 2969 2968 2967 2967
2977 2976 2973 2971 2972 2972 2972 2971 2970 2969 2969 2967 2966 2963 2960 2956 2950 2945 2942 2943 2945 2948 2950 2953 2956 2960 2963 2966 2969 2971 2974 2976 2979 2980 2981 2982 2983 2983 2983 2982 2982 2981 2980 2978 2977 2975 2973 2971 2970 2969 2967 2967 2966 2965
2975 2974 2971 2970 2971 2971 2973 2971 2970 2968 2968 2968 2967 2966 2964 2962 2959 2957 2956 2955 2955 2957 2959 2961 2964 2966 2969 2970 2972 2975 2977 2979 2981 2982 2983 2984 2984 2984 2984 2983 2983 2982 2980 2978 2976 2975 2973 2971 2970 2968 2967 2966 2965 2964
2974 2973 2971 2971 2971 2971 2971 2970 2969 2968 2967 2967 2967 2966 2966 2965 2965 2964 2963 2963 2964 2964 2966 2967 2969 2971 2973 2975 2976 2978 2980 2981 2982 2983 2984 2984 2985 2985 2985 2984 2983 2982 2980 2978 2977 2975 2973 2971 2969 2967 2966 2965 2964 2963
2975 2974 2973 2971 2971 2971 2969 2969 2968 2967 2967 2967 2967 2967 2967 2968 2968 2968 2968 2968 2969 2970 2971 2972 2973 2974 2976 2977 2979 2981 2982 2983 2983 2984 2985 2985 2985 2986 2985 2984 2983 2981 2980 2978 2976 2975 2973 2971 2968 2966 2965 2963 2962 2962
2973 2972 2972 2971 2970 2970 2969 2968 2968 2967 2967 2967 2967 2967 2967 2968 2969 2969 2970 2971 2972 2972 2973 2975 2976 2977 2978 2980 2981 2982 2983 2984 2985 2985 2986 2986 2986 2986 2985 2983 2982 2980 2978 2977 2975 2973 2971 2969 2967 2965 2963 2962 2960 2959
2971 2971 2970 2970 2969 2968 2968 2967 2967 2966 2966 2966 2966 2966 2967 2968 2968 2969 2970 2971 2972 2974 2975 2976 2977 2979 2980 2981 2982 2983 2984 2984 2985 2986 2986 2986 2985 2985 2984 2982 2981 2980 2978 2976 2975 2972 2970 2967 2965 2963 2961 2959 2957 2956
2970 2969 2969 2968 2967 2967 2966 2965 2965 2965 2965 2965 2966 2966 2966 2967 2968 2968 2968 2970 2972 2973 2975 2977 2978 2979 2980 2981 2982 2983 2984 2984 2985 2985 2985 2985 2985 2984 2983 2982 2981 2979 2977 2976 2974 2971 2968 2965 2962 2960 2958 2956 2955 2954
2968 2967 2967 2966 2966 2965 2964 2964 2964 2964 2964 2964 2964 2965 2965 2965 2966 2966 2967 2968 2970 2972 2974 2976 2978 2979 2980 2981 2982 2982 2983 2984 2984 2984 2984 2984 2983 2983 2982 2980 2979 2977 2975 2973 2971 2968 2965 2963 2960 2958 2956 2954 2953 2951
2966 2965 2964 2964 2964 2963 2963 2963 2962 2962 2962 2962 2963 2963 2963 2963 2963 2964 2965 2966 2969 2971 2973 2975 2976 2978 2978 2979 2980 2981 2981 2982 2982 2982 2982 2982 2981 2980 2979 2977 2976 2974 2972 2970 2968 2965 2962 2959 2957 2955 2953 2952 2950 2948
2962 2961 2961 2960 2960 2961 2960 2960 2960 2960 2960 2960 2960 2961 2961 2961 2961 2962 2964 2965 2967 2969 2971 2972 2974 2975 2976 2977 2977 2978 2979 2980 2979 2979 2979 2979 2978 2977 2976 2974 2973 2971 2969 2967 2964 2961 2958 2956 2954 2952 2950 2948 2946 2945
2959 2959 2958 2957 2958 2957 2957 2957 2957 2957 2957 2958 2958 2959 2960 2960 2961 2962 2964 2965 2966 2967 2968 2970 2971 2972 2973 2974 2975 2975 2976 2976 2976 2976 2976 2975 2975 2974 2972 2970 2969 2967 2965 2963 2960 2958 2955 2953 2950 2948 2946 2944 2943 2942
2957 2956 2955 2955 2954 2954 2954 2954 2954 2955 2955 2955 2956 2957 2958 2960 2961 2962 2963 2963 2965 2965 2966 2967 2968 2969 2970 2971 2971 2972 2972 2972 2973 2972 2972 2971 2970 2969 2968 2967 2965 2963 2961 2958 2956 2954 2951 2949 2947 2945 2943 2941 2940 2938